Regional Weather Roundup
Issued by NWS Cleveland, OH

Home | Current Version | Previous Version | Graphics & Text | Print | Product List | Glossary On
Versions: 1 2 3 4 5 6 7 8 9 10 11 12 13 14 15 16 17 18 19 20 21 22 23 24 25 26 27 28 29 30 31 32 33 34 35 36 37 38 39 40 41 42 43 44 45 46 47 48 49 50
833
ASUS41 KCLE 250210
RWRCLE
OHIO REGIONAL WEATHER ROUNDUP
NATIONAL WEATHER SERVICE WILMINGTON, OH
1000 PM EDT FRI MAR 24 2017

NOTE: "FAIR" INDICATES FEW OR NO CLOUDS BELOW 12,000 FEET WITH NO
SIGNIFICANT WEATHER AND/OR OBSTRUCTIONS TO VISIBILITY.

OHZ001>008-015>018-024>027-034-035-043-044-250300-
   NORTHWEST OHIO

CITY           SKY/WX    TMP DP  RH WIND       PRES   REMARKS
DEFIANCE       FAIR      64  52  64 S10       30.04R
FINDLAY        MOCLDY    65  52  62 SW10      30.06R
TOLEDO EXPRESS FAIR      67  54  63 SW14      30.03R
TOLEDO EXEC    FAIR      67  55  65 SW13      30.03R
LIMA           CLOUDY    65  53  65 S8        30.08R
$$

OHZ009>014-019>023-028>033-038-089-250300-
   NORTHEAST OHIO

CITY           SKY/WX    TMP DP  RH WIND       PRES   REMARKS
CLE-HOPKINS    MOCLDY    69  51  52 SW15      30.07R
CLE-LAKEFRONT  FAIR      70  51  51 S16G23    30.03R
CUY CO. ARPT   PTCLDY    70  54  56 SW17G29   30.05R
LORAIN-ELYRIA  FAIR      65  51  60 SW17      30.06R
ASHTABULA      FAIR      66  52  60 SW13      30.05R
AKRON-CANTON   FAIR      65  51  60 SW12      30.10R
WOOSTER        FAIR      63  51  65 SW13      30.09F
MANSFIELD      FAIR      63  52  67 MISG      30.10S
YOUNGSTOWN     MOCLDY    66  51  58 SW13      30.09R
$$

OHZ042-051>053-060>062-070>072-077>081-250300-
  SOUTHWEST OHIO

CITY           SKY/WX    TMP DP  RH WIND       PRES   REMARKS
CINC-COVINGTON CLOUDY    68  52  56 S12G21    30.11S
CINC-LUNKEN    FAIR      67  54  63 S12       30.11F
HAMILTON       FAIR      70  53  54 S7        30.12R
DAYTON         MOCLDY    64  52  64 SW9       30.11R
WRIGHT-PAT AFB MOCLDY    66  53  62 S12       30.10R
DAYTON GENERAL FAIR      67  52  58 SW8       30.11R
WILMINGTON     FAIR      62  52  69 S9        30.12R
$$

OHZ036-037-039>041-045>050-054>059-063>069-073>076-082>088-250300-
  CENTRAL AND SOUTHEAST OHIO

CITY           SKY/WX    TMP DP  RH WIND       PRES   REMARKS
COLUMBUS       FAIR      67  53  61 S8        30.11S
OSU AIRPORT    FAIR      64  54  69 S7        30.11R
BOLTON FIELD   FAIR      63  53  71 S8        30.12S
RICKENBACK AFB FAIR      64  53  66 S7        30.11S
NEWARK         FAIR      65  52  62 S7        30.11S
MARION         FAIR      61  52  72 S9        30.10R
LANCASTER      FAIR      68  52  56 SW7       30.13S
ZANESVILLE     FAIR      65  51  60 S6        30.13R
NEW PHILLY     FAIR      68  52  56 SW5       30.12R
$$




USA.gov is the U.S. government's official web portal to all federal, state and local government web resources and services.